Weather History for Lihue, HI

Change the Weather History Date:

Sunday, October 31, 2010

  Actual Average Record
Temperature  
Mean Temperature 78 °F 77 °F  
Max Temperature 82 °F 82 °F 86 °F (1957)
Min Temperature 73 °F 72 °F 65 °F (1962)
Degree Days  
Heating Degree Days 0 0  
Month to date heating degree days 0 0  
Since 1 July heating degree days 0 0  
Cooling Degree Days 13 12  
Month to date cooling degree days 452 408  
Year to date cooling degree days 3339 3367  
Growing Degree Days 27 (Base 50)    
Moisture  
Dew Point 66 °F    
Average Humidity 73    
Maximum Humidity 87    
Minimum Humidity 58    
Precipitation  
Precipitation T in 0.14 in 7.62 in (1978)
Month to date precipitation 0.83 3.82  
Year to date precipitation 13.00 27.39  
Snow  
Snow 0.00 in - - ()
Month to date snowfall 0.0  
Since 1 July snowfall 0.0  
Since 1 September snowfall 0.0  
Snow Depth 0.00 in    
Sea Level Pressure  
Sea Level Pressure 30.05 in    
Wind  
Wind Speed 10 mph (ENE)    
Max Wind Speed 16 mph    
Max Gust Speed 20 mph    
Visibility 10 miles    
Events      
T = Trace of Precipitation, MM = Missing Value Source: NWS Daily Summary

Daily Weather History Graph

Daily Weather History Graph

Search for Another Location

Airport:

Trip Planner

Search our weather history database for the weather conditions in past years. The results will help you decide how hot, cold, wet, or windy it might be!

Date:

Astronomy

Oct. 31, 2010 Rise Set
Actual Time 6:40 AM HST 6:00 PM HST
Civil Twilight 6:17 AM HST 6:23 PM HST
Nautical Twilight 5:51 AM HST 6:50 PM HST
Astronomical Twilight 5:25 AM HST 7:16 PM HST
Moon 1:05 AM HST (10/31) 2:03 PM HST (10/31)
Length of Visible Light 12h 06m
Length of Day
11h 20m
Waning Crescent, 34% of the Moon is Illuminated
Oct 31
Waning Crescent
Nov 5
New
Nov 13
First Quarter
Nov 21
Full
Nov 28
Last Quarter

Hourly Weather History & Observations

Time (HST) Temp. Heat Index Dew Point Humidity Pressure Visibility Wind Dir Wind Speed Gust Speed Precip Events Conditions
12:53 AM 75.0 °F - 68.0 °F 79% 30.06 in 10.0 mi ENE 11.5 mph - N/A   Overcast
1:53 AM 73.0 °F - 69.1 °F 87% 30.05 in 10.0 mi Calm Calm - 0.00 in   Overcast
2:53 AM 75.9 °F - 68.0 °F 76% 30.04 in 10.0 mi ENE 10.4 mph - N/A   Overcast
3:53 AM 75.0 °F - 68.0 °F 79% 30.03 in 10.0 mi East 11.5 mph - N/A   Overcast
4:53 AM 75.0 °F - 68.0 °F 79% 30.02 in 10.0 mi ENE 13.8 mph - N/A   Mostly Cloudy
5:53 AM 75.0 °F - 66.0 °F 73% 30.03 in 10.0 mi ENE 13.8 mph - N/A   Clear
6:53 AM 75.0 °F - 66.9 °F 76% 30.04 in 10.0 mi ENE 9.2 mph - N/A   Clear
7:53 AM 78.1 °F - 68.0 °F 71% 30.06 in 10.0 mi NE 11.5 mph - N/A   Mostly Cloudy
8:53 AM 79.0 °F - 68.0 °F 69% 30.07 in 10.0 mi NE 9.2 mph - N/A   Partly Cloudy
9:44 AM 80.6 °F 82.7 °F 66.2 °F 61% 30.09 in 10.0 mi ENE 10.4 mph - N/A   Mostly Cloudy
9:53 AM 80.1 °F 82.1 °F 66.0 °F 62% 30.08 in 10.0 mi ENE 12.7 mph - N/A   Scattered Clouds
10:53 AM 81.0 °F 82.7 °F 64.9 °F 58% 30.07 in 10.0 mi ENE 12.7 mph - N/A   Clear
11:19 AM 80.6 °F 82.7 °F 66.2 °F 61% 30.07 in 1.8 mi ENE 11.5 mph - N/A   Haze
11:33 AM 80.6 °F 82.7 °F 66.2 °F 61% 30.06 in 10.0 mi ENE 10.4 mph - N/A   Partly Cloudy
11:53 AM 81.0 °F 82.7 °F 64.9 °F 58% 30.05 in 10.0 mi ENE 11.5 mph - N/A   Clear
12:53 PM 81.0 °F 83.0 °F 66.0 °F 60% 30.03 in 10.0 mi ENE 10.4 mph - N/A   Partly Cloudy
1:53 PM 81.0 °F 83.3 °F 66.9 °F 62% 30.01 in 10.0 mi ENE 11.5 mph - 0.00 in   Mostly Cloudy
2:53 PM 80.1 °F 82.3 °F 66.9 °F 64% 29.99 in 10.0 mi NE 10.4 mph - N/A   Clear
3:53 PM 80.1 °F 81.9 °F 64.9 °F 60% 29.99 in 10.0 mi ENE 11.5 mph - N/A   Clear
4:53 PM 78.1 °F - 64.9 °F 64% 30.00 in 10.0 mi NE 9.2 mph - N/A   Clear
5:53 PM 75.9 °F - 64.0 °F 67% 30.02 in 10.0 mi ENE 10.4 mph - N/A   Partly Cloudy
6:53 PM 75.0 °F - 64.9 °F 71% 30.04 in 10.0 mi NNE 8.1 mph - N/A   Partly Cloudy
7:29 PM 75.2 °F - 66.2 °F 73% 30.05 in 10.0 mi NE 9.2 mph - N/A   Mostly Cloudy
7:53 PM 75.9 °F - 66.0 °F 71% 30.05 in 10.0 mi East 10.4 mph - N/A   Mostly Cloudy
8:04 PM 75.2 °F - 66.2 °F 73% 30.06 in 10.0 mi ENE 9.2 mph - N/A   Mostly Cloudy
8:14 PM 75.2 °F - 66.2 °F 73% 30.07 in 10.0 mi ENE 10.4 mph - N/A   Overcast
8:21 PM 75.2 °F - 66.2 °F 73% 30.07 in 10.0 mi ENE 10.4 mph - N/A   Mostly Cloudy
8:53 PM 75.0 °F - 64.9 °F 71% 30.07 in 10.0 mi ENE 6.9 mph - N/A   Partly Cloudy
9:53 PM 75.9 °F - 66.0 °F 71% 30.08 in 10.0 mi NE 8.1 mph - N/A   Overcast
10:53 PM 75.0 °F - 64.9 °F 71% 30.08 in 10.0 mi ENE 10.4 mph - N/A   Mostly Cloudy
11:53 PM 75.0 °F - 64.0 °F 69% 30.08 in 10.0 mi ENE 8.1 mph - N/A   Clear